Weather History for Las Vegas, NM

Change the Weather History Date:

Monday, March 10, 2014

  Actual Average Record
Temperature  
Mean Temperature 50 °F -  
Max Temperature 73 °F 53 °F 79 °F (1989)
Min Temperature 30 °F 26 °F -7 °F (1948)
Degree Days  
Heating Degree Days 14    
Moisture  
Dew Point -3 °F    
Average Humidity 13    
Maximum Humidity 28    
Minimum Humidity 4    
Precipitation  
Precipitation 0.00 in - - ()
Sea Level Pressure  
Sea Level Pressure 29.83 in    
Wind  
Wind Speed 8 mph (WNW)    
Max Wind Speed 20 mph    
Max Gust Speed 25 mph    
Visibility 10 miles    
Events      
Averages and records for this station are not official NWS values.
T = Trace of Precipitation, MM = Missing Value Source: NWS Daily Summary

Daily Weather History Graph

Daily Weather History Graph

Search for Another Location

Airport:

Trip Planner

Search our weather history database for the weather conditions in past years. The results will help you decide how hot, cold, wet, or windy it might be!

Date:

Astronomy

Mar. 10, 2014 Rise Set
Actual Time 7:18 AM MDT 7:03 PM MDT
Civil Twilight 6:52 AM MDT 7:29 PM MDT
Nautical Twilight 6:23 AM MDT 7:58 PM MDT
Astronomical Twilight 5:53 AM MDT 8:28 PM MDT
Moon 1:57 PM MDT (3/10) 3:23 AM MDT (3/10)
Length of Visible Light 12h 36m
Length of Day
11h 45m
Waxing Gibbous, 70% of the Moon is Illuminated
Mar 10
Waxing Gibbous
Mar 16
Full
Mar 23
Last Quarter
Mar 30
New
Apr 7
First Quarter

Hourly Weather History & Observations

Time (MDT) Temp. Windchill Dew Point Humidity Pressure Visibility Wind Dir Wind Speed Gust Speed Precip Events Conditions
12:53 AM 39.9 °F 36.7 °F 6.1 °F 25% 30.03 in 10.0 mi NW 4.6 mph - N/A   Clear
1:53 AM 43.0 °F - 3.0 °F 19% 29.99 in 10.0 mi Calm Calm - N/A   Clear
2:53 AM 39.9 °F 35.1 °F 1.9 °F 20% 29.98 in 10.0 mi NNW 6.9 mph - N/A   Clear
3:53 AM 37.9 °F 31.5 °F 1.9 °F 22% 29.96 in 10.0 mi NNW 9.2 mph - N/A   Clear
4:53 AM 35.1 °F 27.9 °F 1.0 °F 24% 29.96 in 10.0 mi NNW 9.2 mph - N/A   Clear
5:53 AM 30.0 °F 24.1 °F -0.0 °F 28% 29.97 in 10.0 mi NNE 5.8 mph - N/A   Clear
6:53 AM 37.0 °F 32.4 °F 1.9 °F 23% 29.98 in 10.0 mi NNW 5.8 mph - N/A   Clear
7:53 AM 41.0 °F 36.4 °F 1.0 °F 19% 29.98 in 10.0 mi NNE 6.9 mph - N/A   Clear
8:53 AM 46.0 °F 43.9 °F 3.0 °F 17% 29.97 in 10.0 mi NNE 4.6 mph - N/A   Clear
9:53 AM 54.0 °F - 3.9 °F 13% 29.94 in 10.0 mi NNE 6.9 mph - N/A   Clear
10:53 AM 61.0 °F - -4.0 °F 7% 29.88 in 10.0 mi SW 6.9 mph - N/A   Clear
11:53 AM 64.0 °F - -2.9 °F 7% 29.86 in 10.0 mi South 9.2 mph - N/A   Clear
12:53 PM 68.0 °F - -2.9 °F 6% 29.80 in 10.0 mi South 12.7 mph - N/A   Clear
1:53 PM 69.1 °F - -4.0 °F 5% 29.74 in 10.0 mi South 15.0 mph 23.0 mph N/A   Clear
2:53 PM 70.0 °F - -6.0 °F 5% 29.71 in 10.0 mi South 19.6 mph 25.3 mph N/A   Clear
3:53 PM 71.1 °F - -11.9 °F 4% 29.68 in 10.0 mi Variable 6.9 mph - N/A   Clear
4:53 PM 71.1 °F - -27.9 °F 4% 29.69 in 10.0 mi NW 19.6 mph 25.3 mph N/A   Clear
5:53 PM 66.9 °F - -15.0 °F 4% 29.73 in 10.0 mi NW 16.1 mph - N/A   Clear
6:53 PM 62.1 °F - -2.9 °F 7% 29.73 in 10.0 mi WNW 13.8 mph - N/A   Clear
7:53 PM 55.0 °F - -4.0 °F 9% 29.75 in 10.0 mi West 10.4 mph - N/A   Clear
8:53 PM 55.0 °F - -8.0 °F 7% 29.72 in 10.0 mi West 8.1 mph - N/A   Clear
9:53 PM 51.1 °F - -0.0 °F 12% 29.68 in 10.0 mi South 6.9 mph - N/A   Clear
10:53 PM 46.0 °F 42.5 °F 3.0 °F 17% 29.65 in 10.0 mi SSW 6.9 mph - N/A   Clear
11:53 PM 53.1 °F - -6.0 °F 9% 29.57 in 10.0 mi West 16.1 mph - N/A   Clear